Location: DARK SKY Beskydy - Park tmavé oblohy, www.darkskybeskydy.cz
(49.4926°N, 18.5016°E)
Time: 01:11:45
(UTC+02:00)

TIGRISAT - Pass Details

Date: 08 August 2024
Orbit: 591 x 668 km, 97.7° (Epoch: 14 September)

Event Time Altitude Azimuth Distance (km) Brightness Sun altitude
Rises 02:48:51 0° 113° (ESE) 2,933 ? -19.5°
Reaches altitude 10° 02:52:03 10° 88° (E) 2,011 ? -19.3°
Maximum altitude 02:54:14 14° 58° (ENE) 1,765 ? -19.1°
Drops below altitude 10° 02:56:24 10° 28° (NNE) 1,994 ? -18.9°
Sets 02:59:32 0° 2° (N) 2,888 ? -18.6°
